DF7PN-WX Weather Reports


time (UTC)temp
C
wind
direction
speed
KPH
gust
KPH
rain 1hr
cm
rain 24hr
cm
rain mn
cm
humidity
%
barometer
mb
20260506103135 18 225 11.3 12.9 0.00 0.00 0.00 66 1006.8
20260506102635 17 225 11.3 12.9 0.00 0.00 0.00 69 1006.8
20260506102135 17 225 11.3 12.9 0.00 0.00 0.00 67 1006.8
20260506101635 18 225 11.3 12.9 0.00 0.00 0.00 64 1006.8
20260506101135 18 225 11.3 12.9 0.00 0.00 0.00 67 1006.8
20260506100635 18 225 11.3 12.9 0.00 0.00 0.00 64 1006.8
20260506100135 18 225 11.3 12.9 0.00 0.00 0.00 66 1006.7
20260506095635 17 225 11.3 12.9 0.00 0.00 0.00 68 1006.7
20260506095135 17 225 11.3 12.9 0.00 0.00 0.00 70 1006.7
20260506094635 17 225 11.3 12.9 0.00 0.00 0.00 70 1006.6
20260506094135 17 226 4.8 4.8 0.00 0.00 0.00 73 1006.5
20260506093635 17 226 4.8 4.8 0.00 0.00 0.00 73 1006.6
20260506093135 17 226 4.8 4.8 0.00 0.00 0.00 73 1006.7
20260506092635 16 226 8.0 8.0 0.00 0.00 0.00 76 1006.6
20260506092134 17 226 8.0 8.0 0.00 0.00 0.00 78 1006.5
20260506091635 16 226 11.3 12.9 0.00 0.00 0.00 76 1006.6
20260506091134 17 226 11.3 12.9 0.00 0.00 0.00 72 1006.7
20260506090634 17 226 11.3 12.9 0.00 0.00 0.00 71 1006.7
20260506090134 17 226 11.3 12.9 0.00 0.00 0.00 72 1006.7
20260506085634 17 226 11.3 12.9 0.00 0.00 0.00 73 1006.7
20260506085134 17 226 11.3 12.9 0.00 0.00 0.00 72 1006.7
20260506084634 17 226 11.3 12.9 0.00 0.00 0.00 73 1006.7
20260506084134 16 226 11.3 12.9 0.00 0.00 0.00 75 1006.7
20260506083634 17 235 1.6 3.2 0.00 0.00 0.00 77 1006.6
20260506083134 16 235 1.6 3.2 0.00 0.00 0.00 77 1006.5
20260506082634 16 235 1.6 3.2 0.00 0.00 0.00 78 1006.4
20260506082134 16 235 3.2 4.8 0.00 0.00 0.00 80 1006.4
20260506081634 16 235 6.4 8.0 0.00 0.00 0.00 81 1006.4
20260506081134 16 235 6.4 8.0 0.00 0.00 0.00 81 1006.4
20260506080633 16 235 9.7 12.9 0.00 0.00 0.00 84 1006.5
20260506080133 15 235 9.7 12.9 0.00 0.00 0.00 83 1006.5
20260506073133 14 222 3.2 3.2 0.00 0.00 0.00 91 1006.5
20260506072633 15 222 4.8 6.4 0.00 0.00 0.00 94 1006.5
20260506072133 15 222 4.8 6.4 0.00 0.00 0.00 94 1006.5
20260506071633 15 222 4.8 6.4 0.00 0.00 0.00 93 1006.6
20260506071133 14 222 8.0 9.7 0.00 0.00 0.00 97 1006.5
20260506070633 14 222 11.3 14.5 0.00 0.00 0.00 96 1006.5
20260506070133 14 222 11.3 14.5 0.00 0.00 0.00 97 1006.4
20260506062132 13 224 6.4 12.9 0.00 0.00 0.00 10 1006.4
20260506061632 13 224 9.7 19.3 0.00 0.00 0.00 10 1006.4
20260506061132 13 224 9.7 19.3 0.00 0.00 0.00 10 1006.3
20260506060632 13 224 9.7 19.3 0.00 0.00 0.00 10 1006.3
20260506060132 13 229 0.0 3.2 0.00 0.00 0.00 10 1006.3
20260506051131 12 229 1.6 6.4 0.00 0.00 0.00 10 1006.2
20260506050631 12 229 3.2 9.7 0.00 0.00 0.00 10 1006.2
20260506050131 12 229 3.2 9.7 0.00 0.00 0.00 10 1006.2
20260506045131 12 229 4.8 14.5 0.00 0.00 0.00 10 1006.2
20260506044631 12 229 8.0 20.9 0.00 0.00 0.00 10 1006.2
20260506044131 12 229 8.0 20.9 0.00 0.00 0.00 10 1006.3
20260506043631 12 229 8.0 20.9 0.00 0.00 0.00 10 1006.4
20260506043130 12 226 0.0 3.2 0.00 0.00 0.00 10 1006.4
20260506042630 12 226 0.0 3.2 0.00 0.00 0.00 10 1006.4
20260506042130 12 226 0.0 3.2 0.00 0.00 0.00 10 1006.5
20260506041630 12 226 1.6 4.8 0.00 0.00 0.00 10 1006.4
20260506041130 12 226 1.6 4.8 0.00 0.00 0.00 10 1006.4
20260506040630 12 226 1.6 4.8 0.00 0.00 0.00 10 1006.5
20260506040130 12 226 3.2 8.0 0.00 0.00 0.00 10 1006.5
20260506035630 12 226 3.2 8.0 0.00 0.00 0.00 10 1006.5
20260506035130 12 226 3.2 8.0 0.00 0.00 0.00 10 1006.6
20260506034630 12 226 6.4 12.9 0.00 0.00 0.00 10 1006.5
20260506034130 12 226 6.4 12.9 0.00 0.00 0.00 10 1006.5
20260506033630 12 226 6.4 12.9 0.00 0.00 0.00 10 1006.5
20260506033130 12 226 9.7 19.3 0.00 0.00 0.00 10 1006.5
20260506032630 12 226 9.7 19.3 0.00 0.00 0.00 10 1006.6
20260506032129 12 226 9.7 19.3 0.00 0.00 0.00 10 1006.6
20260506031629 12 222 0.0 3.2 0.00 0.00 0.00 10 1006.7
20260506031129 12 222 0.0 3.2 0.00 0.00 0.00 10 1006.6
20260506030629 11 222 0.0 3.2 0.00 0.00 0.00 10 1006.7
20260506030129 11 222 1.6 4.8 0.00 0.00 0.00 10 1006.6
20260506025629 11 222 1.6 4.8 0.00 0.00 0.00 10 1006.6
20260506025129 11 222 1.6 4.8 0.00 0.00 0.00 10 1006.6
20260506024629 11 222 3.2 8.0 0.00 0.00 0.00 10 1006.6
20260506024129 11 222 3.2 8.0 0.00 0.00 0.00 10 1006.5
20260506023629 11 222 3.2 8.0 0.00 0.00 0.00 10 1006.5
20260506023129 12 222 4.8 11.3 0.00 0.00 0.00 10 1006.6
20260506022629 12 222 4.8 11.3 0.00 0.00 0.00 10 1006.6
20260506022129 12 222 4.8 11.3 0.00 0.00 0.00 10 1006.6
20260506021628 12 222 8.0 17.7 0.00 0.00 0.00 10 1006.6
20260506021128 12 222 8.0 17.7 0.00 0.00 0.00 10 1006.6
20260506020628 12 211 0.0 4.8 0.00 0.00 0.00 10 1006.7
20260506020128 12 211 0.0 4.8 0.00 0.00 0.00 10 1006.6
20260506015628 12 211 1.6 8.0 0.00 0.00 0.00 10 1006.6
20260506015128 12 211 1.6 8.0 0.00 0.00 0.00 10 1006.7
20260506014628 12 211 3.2 11.3 0.00 0.00 0.00 10 1006.7
20260506014128 12 211 3.2 11.3 0.00 0.00 0.00 10 1006.8
20260506013628 12 211 3.2 11.3 0.00 0.00 0.00 10 1006.9
20260506013128 12 211 6.4 16.1 0.00 0.00 0.00 10 1007.0
20260506012628 12 211 6.4 16.1 0.00 0.00 0.00 10 1007.0
20260506012128 12 211 6.4 16.1 0.00 0.00 0.00 10 1007.0
20260506011628 12 209 0.0 3.2 0.00 0.00 0.00 10 1007.0
20260506011128 12 209 1.6 6.4 0.00 0.00 0.00 10 1007.1
20260506010628 12 209 1.6 6.4 0.00 0.00 0.00 10 1007.1
20260506010128 12 209 1.6 6.4 0.00 0.00 0.00 10 1007.1
20260506005628 12 209 3.2 9.7 0.00 0.00 0.00 10 1007.1
20260506005127 12 209 4.8 14.5 0.00 0.00 0.00 10 1007.1
20260506004627 12 209 4.8 14.5 0.00 0.00 0.00 10 1007.1
20260506004127 12 209 4.8 14.5 0.00 0.00 0.00 10 1007.0
20260506003627 12 204 0.0 1.6 0.00 0.00 0.00 10 1007.0
20260506003127 12 204 1.6 3.2 0.00 0.00 0.00 10 1007.0
20260506002627 12 204 3.2 4.8 0.00 0.00 0.00 10 1007.1
20260506002127 12 204 3.2 4.8 0.00 0.00 0.00 10 1007.1
20260506001627 12 204 3.2 4.8 0.00 0.00 0.00 10 1007.1
20260506001127 12 204 4.8 8.0 0.00 0.00 0.00 10 1007.1
20260506000627 12 204 4.8 8.0 0.00 0.00 0.00 10 1007.1
20260506000127 12 204 4.8 8.0 0.00 0.00 0.00 10 1007.1
20260505235627 12 204 0.0 1.6 0.00 0.00 0.00 10 1007.2
20260505235127 12 204 0.0 1.6 0.00 0.00 0.00 10 1007.2
20260505234626 12 204 0.0 1.6 0.00 0.00 0.00 10 1007.3
20260505234126 13 204 1.6 3.2 0.00 0.00 0.00 10 1007.3
20260505233626 13 204 1.6 3.2 0.00 0.00 0.00 10 1007.3
20260505233126 13 204 1.6 3.2 0.00 0.00 0.00 10 1007.3
20260505232626 13 204 3.2 4.8 0.00 0.00 0.00 10 1007.3
20260505232126 13 204 0.0 1.6 0.00 0.00 0.00 10 1007.3
20260505231626 13 204 0.0 1.6 0.00 0.00 0.00 10 1007.4
20260505231126 13 204 1.6 3.2 0.00 0.00 0.00 10 1007.4
20260505230626 13 204 1.6 3.2 0.00 0.00 0.00 10 1007.4
20260505230126 13 204 1.6 3.2 0.00 0.00 0.00 10 1007.4
20260505225626 13 204 3.2 4.8 0.00 0.00 0.00 10 1007.4
20260505225126 13 204 3.2 4.8 0.00 0.00 0.00 10 1007.4
20260505224626 13 204 3.2 4.8 0.00 0.00 0.00 10 1007.4
20260505224125 13 211 0.0 0.0 0.00 0.00 0.00 10 1007.4
20260505223625 14 211 0.0 0.0 0.00 0.00 0.00 10 1007.4
20260505223125 14 211 1.6 0.0 0.00 0.00 0.00 10 1007.5
20260505222625 14 211 1.6 0.0 0.00 0.00 0.00 10 1007.5
20260505222125 14 211 1.6 0.0 0.00 0.00 0.00 10 1007.5
20260505221625 14 211 3.2 1.6 0.00 0.00 0.00 10 1007.5
20260505221125 14 211 0.0 0.0 0.00 0.00 0.00 10 1007.5
20260505220625 14 211 0.0 0.0 0.00 0.00 0.00 10 1007.5
20260505220125 14 211 0.0 0.0 0.00 0.00 0.00 10 1007.6
20260505215625 14 211 1.6 0.0 0.00 0.00 0.00 10 1007.6
20260505215125 14 211 1.6 0.0 0.00 0.00 0.00 10 1007.6
20260505214625 14 211 3.2 1.6 0.00 0.00 0.00 10 1007.6
20260505214125 14 211 3.2 1.6 0.00 0.00 0.00 10 1007.7
20260505213624 14 211 3.2 1.6 0.00 0.00 0.00 10 1007.7
20260505213125 14 231 0.0 0.0 0.00 0.00 0.00 10 1007.6
20260505212624 14 231 0.0 0.0 0.00 0.00 0.00 10 1007.7
20260505212124 14 231 1.6 1.6 0.00 0.00 0.00 10 1007.7
20260505211624 14 231 1.6 1.6 0.00 0.00 0.00 10 1007.7
20260505211124 15 231 1.6 1.6 0.00 0.00 0.00 10 1007.8
20260505210624 14 231 3.2 3.2 0.00 0.00 0.00 10 1007.8
20260505210124 14 231 0.0 0.0 0.00 0.00 0.00 10 1007.8
20260505205624 14 231 1.6 1.6 0.00 0.00 0.00 10 1007.8
20260505205124 14 231 1.6 1.6 0.00 0.00 0.00 10 1007.8
20260505204624 14 231 1.6 1.6 0.00 0.00 0.00 10 1007.8
20260505204124 14 231 3.2 3.2 0.00 0.00 0.00 10 1007.8
20260505203624 14 236 0.0 1.6 0.00 0.00 0.00 10 1007.8
20260505203124 15 236 0.0 1.6 0.00 0.00 0.00 10 1007.9
20260505202624 15 236 0.0 1.6 0.00 0.00 0.00 10 1007.9
20260505202124 15 236 1.6 3.2 0.00 0.00 0.00 10 1007.9
20260505201624 15 236 1.6 3.2 0.00 0.00 0.00 10 1007.9
20260505201123 15 236 3.2 4.8 0.00 0.00 0.00 10 1007.9
20260505200623 15 236 3.2 4.8 0.00 0.00 0.00 10 1007.9
20260505200123 15 236 0.0 1.6 0.00 0.00 0.00 10 1007.9
20260505195623 15 236 0.0 1.6 0.00 0.00 0.00 10 1007.9
20260505195122 15 236 0.0 1.6 0.00 0.00 0.00 10 1007.9
20260505194622 15 236 1.6 3.2 0.00 0.00 0.00 10 1007.9
20260505194122 15 236 1.6 3.2 0.00 0.00 0.00 10 1007.9
20260505193622 15 236 3.2 4.8 0.00 0.00 0.00 10 1007.8
20260505193122 15 245 0.0 1.6 0.00 0.00 0.00 10 1007.8
20260505192622 15 245 0.0 1.6 0.00 0.00 0.00 10 1007.8
20260505192122 15 245 0.0 1.6 0.00 0.00 0.00 10 1007.7
20260505191622 15 245 1.6 3.2 0.00 0.00 0.00 10 1007.7
20260505191122 15 245 1.6 3.2 0.00 0.00 0.00 10 1007.7
20260505190622 15 245 1.6 3.2 0.00 0.00 0.00 10 1007.7
20260505190121 15 245 0.0 1.6 0.00 0.00 0.00 10 1007.6
20260505185622 15 245 1.6 3.2 0.00 0.00 0.00 10 1007.7
20260505185121 15 227 0.0 1.6 0.00 0.00 0.00 10 1007.7
20260505184621 15 227 0.0 1.6 0.00 0.00 0.00 10 1007.6
20260505184121 15 227 0.0 1.6 0.00 0.00 0.00 10 1007.6
20260505183621 15 227 1.6 3.2 0.00 0.00 0.00 10 1007.6
20260505183121 15 227 3.2 6.4 0.00 0.00 0.00 10 1007.6
20260505182621 15 227 3.2 6.4 0.00 0.00 0.00 10 1007.6
20260505182121 15 227 3.2 6.4 0.00 0.00 0.00 10 1007.6
20260505181621 15 227 4.8 9.7 0.00 0.00 0.00 10 1007.7
20260505181121 15 227 4.8 9.7 0.00 0.00 0.00 10 1007.7
20260505180621 15 227 4.8 9.7 0.00 0.00 0.00 10 1007.7
20260505180121 16 227 4.8 9.7 0.00 0.00 0.00 10 1007.7
20260505175621 16 227 4.8 9.7 0.00 0.00 0.00 10 1007.7
20260505175121 16 227 4.8 9.7 0.00 0.00 0.00 10 1007.7
20260505174620 16 227 4.8 9.7 0.00 0.00 0.00 10 1007.7
20260505174120 16 227 4.8 9.7 0.00 0.00 0.00 10 1007.6
20260505173620 16 251 6.4 12.9 0.00 0.00 0.00 10 1007.6
20260505173120 16 251 6.4 12.9 0.00 0.00 0.00 10 1007.7
20260505172628 16 251 6.4 12.9 0.00 0.00 0.00 10 1007.8
20260505172120 16 251 6.4 12.9 0.00 0.00 0.00 10 1007.8
20260505171620 16 251 6.4 12.9 0.00 0.00 0.00 10 1007.7
20260505171120 16 251 6.4 12.9 0.00 0.00 0.00 10 1007.8
20260505170620 16 251 6.4 12.9 0.00 0.00 0.00 10 1007.8
20260505170120 16 251 6.4 12.9 0.00 0.00 0.00 10 1007.8
20260505165620 16 251 6.4 12.9 0.00 0.00 0.00 10 1007.8
20260505165120 16 251 6.4 12.9 0.00 0.00 0.00 10 1007.8
20260505164620 16 251 6.4 12.9 0.00 0.00 0.00 10 1007.9
20260505164120 16 251 6.4 12.9 0.00 0.00 0.00 99 1007.9
20260505163619 16 240 6.4 14.5 0.00 0.00 0.00 10 1007.9
20260505163119 16 240 6.4 14.5 0.00 0.00 0.00 10 1007.9
20260505162619 16 240 6.4 14.5 0.00 0.00 0.00 10 1007.9
20260505162119 16 240 6.4 14.5 0.00 0.00 0.00 10 1007.9
20260505161619 16 240 6.4 14.5 0.00 0.00 0.00 10 1007.9
20260505161119 16 240 6.4 14.5 0.00 0.00 0.00 10 1007.9
20260505160619 17 240 6.4 14.5 0.00 0.00 0.00 10 1008.0
20260505160119 17 240 6.4 14.5 0.00 0.00 0.00 10 1008.0
20260505153119 16 240 6.4 14.5 0.00 0.00 0.00 10 1008.3
20260505152618 16 236 4.8 11.3 0.00 0.00 0.00 10 1008.3
20260505152118 16 236 4.8 11.3 0.00 0.00 0.00 10 1008.3
20260505151618 16 236 4.8 11.3 0.00 0.00 0.00 99 1008.4
20260505151118 16 236 4.8 11.3 0.00 0.00 0.00 10 1008.4
20260505150618 16 236 4.8 11.3 0.00 0.00 0.00 98 1008.3
20260505150118 16 236 4.8 11.3 0.00 0.00 0.00 98 1008.3
20260505140617 17 244 6.4 11.3 0.00 0.00 0.00 10 1008.5
20260505140117 17 244 6.4 11.3 0.00 0.00 0.00 10 1008.5
20260505130116 18 251 4.8 9.7 0.00 0.00 0.00 77 1008.6
20260505124616 19 251 4.8 9.7 0.00 0.00 0.00 78 1008.6
20260505124116 19 251 4.8 9.7 0.00 0.00 0.00 75 1008.6
20260505123616 19 224 1.6 4.8 0.00 0.00 0.00 76 1008.6
20260505123116 19 224 1.6 4.8 0.00 0.00 0.00 79 1008.7
20260505122616 18 224 1.6 4.8 0.00 0.00 0.00 81 1008.6
20260505122116 18 224 3.2 8.0 0.00 0.00 0.00 82 1008.7
20260505121616 18 224 6.4 11.3 0.00 0.00 0.00 80 1008.7
20260505121116 18 224 6.4 11.3 0.00 0.00 0.00 76 1008.7
20260505120616 18 224 6.4 11.3 0.00 0.00 0.00 76 1008.8
20260505120115 19 240 0.0 0.0 0.00 0.00 0.00 71 1008.7
20260505115615 18 240 0.0 0.0 0.00 0.00 0.00 68 1008.8
20260505115115 18 240 1.6 1.6 0.00 0.00 0.00 69 1008.8
20260505114615 18 240 1.6 1.6 0.00 0.00 0.00 71 1008.8
20260505114115 18 240 1.6 1.6 0.00 0.00 0.00 71 1008.8
20260505113615 18 240 3.2 3.2 0.00 0.00 0.00 71 1008.8
20260505113115 18 240 3.2 3.2 0.00 0.00 0.00 67 1008.9
20260505112615 19 240 3.2 3.2 0.00 0.00 0.00 61 1008.8
20260505112115 19 240 4.8 4.8 0.00 0.00 0.00 58 1008.9
20260505111615 19 240 8.0 8.0 0.00 0.00 0.00 56 1008.9
20260505111115 20 240 8.0 8.0 0.00 0.00 0.00 56 1009.0
20260505110615 20 240 8.0 8.0 0.00 0.00 0.00 55 1008.9
20260505110115 20 240 8.0 8.0 0.00 0.00 0.00 56 1009.0